Change the Weather History Date:

Tuesday, September 2, 2014

  Actual Average Record
Temperature  
Mean Temperature 78 °F -  
Max Temperature 80 °F - - ()
Min Temperature 77 °F - - ()
Cooling Degree Days 14    
Growing Degree Days 28 (Base 50)    
Moisture  
Dew Point 75 °F    
Average Humidity 86    
Maximum Humidity 94    
Minimum Humidity 79    
Precipitation  
Precipitation 0.00 in - - ()
Sea Level Pressure  
Sea Level Pressure 29.77 in    
Wind  
Wind Speed 5 mph ()    
Max Wind Speed 14 mph    
Max Gust Speed -    
Visibility 5.5 miles    
Events Rain    
T = Trace of Precipitation, MM = Missing Value Source: Averaged Metar Reports

Daily Weather History Graph

Daily Weather History Graph

Search for Another Location

Airport or City:

Trip Planner

Search our weather history database for the weather conditions in past years. The results will help you decide how hot, cold, wet, or windy it might be!

Date:

Astronomy

Sep. 02, 2014 Rise Set
Actual Time 5:53 AM ICT 6:15 PM ICT
Civil Twilight 5:31 AM ICT 6:36 PM ICT
Nautical Twilight 5:06 AM ICT 7:01 PM ICT
Astronomical Twilight 4:41 AM ICT 7:27 PM ICT
Moon 11:58 AM ICT (9/2) 11:48 PM ICT (9/2)
Length of Visible Light 13h 04m
Length of Day
12h 21m
Waxing Crescent, 47% of the Moon is Illuminated
Sep 2
Waxing Crescent
Sep 2
First Quarter
Sep 9
Full
Sep 16
Last Quarter
Sep 24
New

Hourly Weather History & Observations

Time (ICT) Temp. Heat Index Dew Point Humidity Pressure Visibility Wind Dir Wind Speed Gust Speed Precip Events Conditions
12:00 AM 77.0 °F - 75.2 °F 94% 29.74 in 5.0 mi WNW 5.8 mph - N/A   Scattered Clouds
12:30 AM 77.0 °F - 75.2 °F 94% 29.74 in 5.0 mi WNW 5.8 mph - N/A   Scattered Clouds
7:00 AM 78.8 °F - 77.0 °F 94% 29.77 in 5.6 mi ESE 5.8 mph - N/A   Mostly Cloudy
7:30 AM 78.8 °F - 75.2 °F 89% 29.77 in 5.6 mi East 5.8 mph - N/A   Mostly Cloudy
8:00 AM 78.8 °F - 75.2 °F 89% 29.77 in 5.6 mi ESE 4.6 mph - N/A   Mostly Cloudy
8:30 AM 78.8 °F - 75.2 °F 89% 29.80 in 5.6 mi ESE 4.6 mph - N/A   Mostly Cloudy
9:00 AM 80.6 °F 86.2 °F 75.2 °F 84% 29.80 in 5.6 mi SE 3.5 mph - N/A   Mostly Cloudy
9:30 AM 80.6 °F 86.2 °F 75.2 °F 84% 29.80 in 5.6 mi SSE 3.5 mph - N/A   Mostly Cloudy
10:00 AM 80.6 °F 86.2 °F 75.2 °F 84% 29.80 in 5.6 mi SSW 6.9 mph - N/A   Mostly Cloudy
10:30 AM 77.0 °F - 75.2 °F 94% 29.80 in 3.7 mi WSW 9.2 mph - N/A Rain Rain
11:00 AM 80.6 °F 86.2 °F 75.2 °F 84% 29.80 in 5.0 mi WSW 9.2 mph - N/A Rain Light Rain
11:30 AM 77.0 °F - 73.4 °F 89% 29.80 in 5.0 mi West 13.8 mph - N/A Rain Light Rain
12:00 PM 77.0 °F - 73.4 °F 89% 29.80 in 5.6 mi West 6.9 mph - N/A   Mostly Cloudy
12:30 PM 77.0 °F - 73.4 °F 89% 29.80 in 5.6 mi West 6.9 mph - N/A   Mostly Cloudy
1:00 PM 78.8 °F - 73.4 °F 83% 29.77 in 5.6 mi WSW 6.9 mph - N/A   Mostly Cloudy
1:30 PM 78.8 °F - 73.4 °F 83% 29.74 in 5.6 mi WSW 5.8 mph - N/A   Mostly Cloudy
2:00 PM 80.6 °F 86.2 °F 75.2 °F 84% 29.74 in 5.6 mi WSW 6.9 mph - N/A   Mostly Cloudy
2:30 PM 80.6 °F 86.2 °F 75.2 °F 84% 29.71 in 5.6 mi WSW 6.9 mph - N/A   Mostly Cloudy
3:00 PM 80.6 °F 86.2 °F 75.2 °F 84% 29.71 in 5.6 mi WSW 5.8 mph - N/A   Mostly Cloudy
3:30 PM 80.6 °F 86.2 °F 75.2 °F 84% 29.71 in 5.6 mi WSW 5.8 mph - N/A   Mostly Cloudy
4:00 PM 80.6 °F 86.2 °F 75.2 °F 84% 29.71 in 5.6 mi SW 3.5 mph - N/A   Mostly Cloudy
4:30 PM 80.6 °F 86.2 °F 75.2 °F 84% 29.71 in 5.6 mi SW 3.5 mph - N/A   Mostly Cloudy
5:00 PM 80.6 °F 86.2 °F 75.2 °F 84% 29.71 in 5.6 mi SW 3.5 mph - N/A   Mostly Cloudy
5:30 PM 80.6 °F 86.2 °F 75.2 °F 84% 29.71 in 5.6 mi South 3.5 mph - N/A   Mostly Cloudy
6:00 PM 80.6 °F 86.2 °F 75.2 °F 84% 29.74 in 5.6 mi South 3.5 mph - N/A   Mostly Cloudy
6:30 PM 80.6 °F 86.2 °F 75.2 °F 84% 29.74 in 5.6 mi SSE 3.5 mph - N/A   Mostly Cloudy
7:00 PM 80.6 °F 85.4 °F 73.4 °F 79% 29.74 in 5.6 mi Variable 3.5 mph - N/A   Mostly Cloudy
7:30 PM 80.6 °F 85.4 °F 73.4 °F 79% 29.77 in 5.6 mi SW 4.6 mph - N/A   Mostly Cloudy
8:00 PM 80.6 °F 85.4 °F 73.4 °F 79% 29.77 in 5.6 mi West 6.9 mph - N/A   Mostly Cloudy
8:30 PM 80.6 °F 85.4 °F 73.4 °F 79% 29.80 in 5.6 mi West 3.5 mph - N/A   Mostly Cloudy
9:00 PM 80.6 °F 85.4 °F 73.4 °F 79% 29.80 in 5.6 mi West 3.5 mph - N/A   Mostly Cloudy
9:30 PM 78.8 °F - 75.2 °F 89% 29.83 in 5.6 mi NW 3.5 mph - N/A   Mostly Cloudy
10:00 PM 77.0 °F - 73.4 °F 89% 29.80 in 5.6 mi Variable 3.5 mph - N/A   Mostly Cloudy
10:30 PM 77.0 °F - 73.4 °F 89% 29.80 in 5.6 mi North 2.3 mph - N/A   Mostly Cloudy
11:00 PM 77.0 °F - 73.4 °F 89% 29.80 in 5.6 mi NNE 2.3 mph - N/A   Mostly Cloudy
11:30 PM 77.0 °F - 73.4 °F 89% 29.80 in 5.6 mi NE 2.3 mph - N/A   Mostly Cloudy